Wetbulb
52.26 52.24 50.62 50.01 50.70 51.66 51.28 45.96 44.95 52.77 53.19 43.75 38.86 38.64 42.05 43.59 44.93 46.60 45.38 44.85 43.66 41.88 41.53 40.37 40.20 39.70 41.96 44.39 45.42 41.13 41.71 37.35 33.83 36.61 41.31 42.67 41.14 38.53 37.15 32.98 30.31 33.14 32.17 31.99
52.12 50.62 50.19 50.55 51.14 51.56 51.28 46.98 47.70 51.62 51.07 37.95 35.88 43.15 44.01 44.66 44.47 44.04 44.35 43.39 44.59 44.04 41.07 38.16 41.42 41.95 44.98 44.85 44.73 42.04 42.19 36.10 30.33 32.04 37.81 40.12 39.06 39.59 37.89 35.99 33.94 32.11 29.69 32.26
51.81 50.06 50.17 50.75 51.31 51.70 48.98 45.53 41.72 46.48 45.46 43.53 42.07 41.43 41.71 42.25 45.33 44.24 44.42 43.56 44.85 42.52 40.24 42.20 40.42 41.46 44.82 45.56 44.62 43.84 43.71 36.77 33.58 29.88 32.84 36.28 34.89 36.99 37.68 37.56 32.91 32.42 33.43 35.65
50.57 49.65 50.21 50.89 51.07 51.26 49.20 44.15 42.43 44.13 37.96 41.78 42.46 42.96 42.77 41.71 41.21 44.82 45.17 43.28 43.03 41.44 36.80 39.13 39.81 42.08 42.59 43.62 44.20 43.57 42.37 35.88 35.86 36.38 37.55 36.69 36.44 36.45 36.92 35.57 36.67 33.04 35.62 36.13
49.61 49.27 49.36 50.46 50.96 50.64 47.75 44.46 44.19 42.47 40.56 43.09 42.50 39.58 42.03 42.10 42.55 43.39 42.80 41.74 43.04 42.75 39.44 40.28 38.57 41.82 41.41 40.70 43.10 41.62 40.62 35.56 35.43 33.07 35.66 35.19 33.23 36.05 36.30 36.74 37.19 36.50 37.34 36.66
49.12 48.94 49.40 50.45 50.86 50.94 48.02 46.67 46.14 45.62 37.41 37.24 38.38 38.55 42.27 42.81 43.92 43.77 44.96 43.52 41.64 37.98 43.00 45.21 45.45 44.77 43.33 43.44 41.64 39.16 38.38 35.66 32.34 29.64 32.12 31.92 29.51 32.99 34.98 36.39 37.60 37.82 33.73 38.98
49.14 48.65 49.36 50.02 50.42 50.99 50.26 47.72 43.78 38.81 35.70 35.09 38.30 42.66 43.33 42.25 43.34 42.13 44.04 44.26 41.61 44.24 46.59 45.18 42.58 39.21 38.81 40.20 40.10 41.29 33.82 33.05 32.09 31.08 29.55 25.69 36.21 39.57 39.65 37.60 38.59 39.33 38.19 39.07
48.55 48.40 50.20 50.06 50.37 51.28 50.19 46.78 44.39 40.08 33.12 37.00 40.63 41.94 41.88 42.44 42.63 42.49 43.66 45.63 44.60 45.85 42.99 37.33 33.16 33.22 30.82 32.82 37.34 38.07 38.23 34.36 31.19 29.44 28.38 32.27 36.38 38.29 37.29 35.85 36.34 39.62 38.30 40.77
47.89 48.76 50.39 50.11 49.93 51.10 51.57 49.13 45.28 42.56 35.85 38.42 43.43 42.14 41.92 38.24 37.55 39.51 42.69 46.20 45.56 42.70 35.35 34.33 30.32 29.04 30.03 32.52 33.62 36.57 35.66 33.95 34.35 30.90 27.56 25.86 34.91 38.01 42.51 40.79 31.98 39.66 42.10 40.97
49.05 50.99 50.69 50.10 49.11 50.31 52.30 51.01 49.54 45.48 38.62 41.88 44.67 41.62 41.46 42.14 40.01 37.42 38.38 43.37 40.94 42.01 34.21 31.82 32.00 32.79 33.24 31.17 27.08 25.90 30.17 31.73 31.04 30.75 28.36 32.39 38.13 39.31 40.70 30.87 34.40 41.85 41.96 41.53
50.46 50.53 50.71 50.27 49.92 49.94 52.36 52.17 50.98 48.20 39.99 44.08 47.55 47.67 43.31 43.17 41.93 38.86 41.09 40.98 38.87 36.95 33.49 33.49 32.25 30.72 33.16 32.54 33.66 30.69 31.50 29.15 27.82 28.38 27.74 25.74 38.70 39.83 35.32 40.21 41.81 42.12 42.13 42.39
49.80 50.31 50.64 50.43 50.35 50.38 51.25 50.42 50.75 49.87 46.64 44.87 49.18 51.30 51.27 49.61 47.03 44.03 41.20 41.85 39.54 40.38 35.35 33.26 31.98 31.28 29.07 30.43 31.95 35.00 31.89 35.47 33.37 33.36 33.87 39.73 40.25 41.22 43.72 43.06 40.99 40.79 41.18 38.43
49.21 49.59 50.36 50.54 50.64 50.63 51.06 49.59 49.23 46.76 38.92 43.42 45.51 45.93 49.14 51.73 51.47 50.44 43.35 39.06 43.49 41.12 42.22 36.93 34.52 33.49 33.72 31.99 31.40 34.87 36.94 38.98 35.45 35.54 39.81 40.92 42.38 45.16 44.04 43.08 40.17 39.54 39.10 37.69
49.17 49.28 49.61 49.97 50.36 50.10 50.24 49.58 48.13 46.67 41.49 33.85 41.15 46.01 46.46 50.21 51.74 51.27 49.73 46.66 44.33 42.68 40.84 34.21 33.67 33.85 39.67 34.32 38.32 36.13 39.38 39.25 37.81 37.09 40.95 42.35 42.39 43.13 40.73 38.23 37.46 36.26 36.72 37.04
49.16 49.18 49.25 49.38 50.13 49.88 49.95 49.65 50.06 49.52 46.48 35.99 37.81 44.08 46.33 46.33 49.18 49.80 48.41 46.95 44.81 42.58 36.39 33.85 34.94 36.72 37.33 37.23 36.35 34.94 40.63 39.32 36.42 35.80 42.14 42.09 39.73 39.47 38.64 36.11 35.25 36.22 36.68 37.53
48.87 49.18 49.42 49.34 49.53 50.63 51.42 45.83 48.95 50.91 49.93 38.92 34.21 42.02 41.64 42.75 45.44 46.79 46.80 46.80 44.95 43.70 39.53 35.48 38.64 42.67 39.78 32.94 33.03 40.08 42.60 44.32 44.95 42.33 44.11 40.66 38.77 37.57 37.50 35.84 36.84 36.89 36.73 35.55
48.58 48.82 49.03 49.16 49.37 51.44 48.33 45.75 45.91 49.92 49.93 37.47 35.84 35.96 38.24 40.15 41.19 41.29 42.18 44.34 45.70 44.52 39.07 35.45 37.23 37.57 40.40 32.94 33.70 40.62 41.31 40.87 38.44 40.18 40.48 37.28 38.06 35.88 37.65 36.04 35.84 36.11 35.23 34.73
48.93 48.95 49.07 49.63 49.11 48.27 46.97 46.65 47.97 50.00 45.10 40.01 33.85 35.30 35.15 39.68 35.40 35.64 39.71 37.28 38.56 38.20 38.53 35.07 35.64 36.56 34.92 33.62 36.34 34.77 36.56 34.76 33.99 34.29 36.03 35.58 35.91 35.91 35.93 36.69 35.94 34.09 33.59 33.41
48.71 49.00 48.89 47.64 45.46 41.97 43.71 46.89 46.87 45.98 44.49 34.57 32.94 33.67 33.30 40.64 37.16 36.35 35.83 36.94 33.30 36.32 33.12 34.18 36.42 33.64 33.02 31.99 32.14 32.32 33.81 34.85 32.75 34.41 35.02 34.81 33.81 34.13 34.69 34.63 34.01 32.81 32.73 33.09
48.05 46.99 42.78 34.74 39.09 46.49 46.36 42.78 38.15 36.16 34.57 34.21 33.12 35.70 34.19 40.11 34.03 33.12 34.39 33.30 32.58 32.03 33.74 35.54 32.94 33.09 32.27 33.65 34.38 34.34 34.46 35.37 36.04 32.91 31.06 32.20 32.01 32.41 32.92 32.31 32.73 32.58 32.25 32.67
42.82 36.90 34.56 41.61 46.00 42.40 36.95 33.30 33.29 32.56 31.85 32.53 33.76 33.74 33.97 37.58 34.12 33.30 34.03 32.58 32.58 28.74 28.85 31.86 31.09 29.96 30.42 33.46 33.74 34.69 34.78 35.86 36.13 36.23 35.72 34.86 33.34 31.61 31.33 31.55 32.20 31.89 31.27 30.56
42.75 41.75 42.91 40.50 36.80 33.65 32.38 31.45 31.43 31.61 31.16 32.87 32.85 33.23 35.34 33.64 36.85 33.85 32.22 31.61 30.69 25.11 29.34 28.24 24.58 28.59 32.31 33.44 33.38 34.18 34.70 34.34 33.80 33.74 32.27 32.10 31.64 31.91 31.23 30.77 30.72 30.29 30.29 28.62
41.15 36.94 32.94 32.93 31.46 30.47 29.24 26.46 26.88 28.77 31.48 32.88 32.90 32.01 32.75 33.45 34.00 31.60 31.60 27.49 25.76 29.02 24.79 23.78 25.83 30.71 33.50 34.17 34.45 32.58 32.80 32.18 29.88 31.70 32.11 31.96 31.48 30.81 28.49 28.44 29.10 28.05 28.27 28.92
32.90 33.09 28.91 28.63 27.42 26.91 25.88 26.77 27.88 31.09 32.35 32.76 32.85 31.00 31.19 30.10 30.13 28.42 25.90 26.07 26.61 23.70 19.52 21.04 27.52 32.03 33.36 33.20 31.76 30.98 31.13 27.43 26.67 29.15 30.28 28.77 27.67 27.84 27.38 25.31 26.31 25.50 26.61 28.40
27.20 28.52 24.50 24.75 27.03 29.54 30.70 32.38 32.76 32.70 33.48 32.61 30.70 28.78 28.25 26.61 25.99 27.07 25.05 23.16 20.47 21.79 21.10 24.39 30.50 31.61 30.83 30.66 31.17 31.16 28.39 25.84 26.21 30.39 28.49 26.63 26.34 26.13 27.01 28.27 27.80 28.19 26.25 25.63
26.70 25.12 24.32 26.85 27.92 28.00 30.69 31.82 31.85 32.81 31.03 30.07 28.08 22.17 23.54 22.91 23.68 22.33 21.69 19.45 16.96 21.37 23.02 27.34 29.36 29.84 30.22 30.50 29.94 29.91 29.92 29.58 29.88 30.20 29.29 29.08 26.97 25.98 28.80 28.83 27.78 26.74 26.19 26.12
22.94 22.63 26.20 24.78 23.61 26.87 27.00 31.89 32.04 33.14 31.33 25.06 22.62 18.76 19.54 21.05 18.34 18.79 22.12 18.30 22.19 24.61 26.00 26.86 28.85 29.53 29.61 29.95 29.54 27.40 27.98 29.41 30.01 30.15 30.00 29.73 29.53 26.83 25.47 26.36 29.66 30.07 29.84 29.34
MSLP
1017.09 1016.77 1016.45 1016.22 1015.89 1015.43 1015.19 1016.02 1016.96 1016.59 1016.41 1017.36 1018.96 1019.14 1018.63 1018.35 1018.48 1018.27 1018.49 1018.85 1019.40 1020.06 1020.66 1021.33 1021.69 1022.11 1022.20 1022.20 1022.27 1022.69 1023.04 1023.19 1022.87 1022.61 1022.51 1022.38 1022.43 1022.85 1023.25 1023.80 1024.37 1024.26 1023.78 1021.56
1017.06 1016.86 1016.54 1016.21 1015.88 1015.67 1015.65 1016.72 1017.18 1016.73 1016.48 1018.20 1019.59 1019.24 1019.01 1018.72 1018.61 1018.83 1018.90 1019.47 1019.85 1020.36 1021.18 1021.83 1022.03 1022.31 1022.59 1022.45 1022.61 1023.00 1023.23 1023.74 1023.66 1023.34 1023.44 1023.05 1023.15 1023.43 1023.79 1024.32 1024.61 1024.07 1023.70 1021.41
1017.18 1016.98 1016.62 1016.20 1015.82 1015.63 1015.80 1017.20 1017.99 1017.93 1018.14 1018.83 1018.90 1019.31 1019.32 1019.10 1018.88 1019.17 1019.39 1019.99 1020.20 1020.89 1021.70 1021.91 1022.41 1022.64 1022.80 1022.79 1023.05 1023.27 1023.41 1024.25 1024.43 1024.36 1023.92 1023.99 1023.99 1023.89 1024.12 1024.19 1024.47 1023.59 1022.31 1021.15
1017.30 1017.13 1016.68 1016.26 1015.89 1015.71 1016.02 1017.73 1019.09 1019.26 1019.81 1019.69 1019.33 1019.17 1019.31 1019.28 1019.35 1019.47 1019.76 1020.43 1020.70 1021.16 1022.11 1022.49 1022.83 1023.00 1023.08 1023.23 1023.43 1023.76 1024.10 1024.83 1024.99 1024.73 1024.26 1024.32 1023.96 1023.75 1023.76 1023.87 1023.43 1023.35 1021.49 1021.24
1017.38 1017.30 1016.88 1016.42 1016.02 1015.80 1016.41 1018.03 1018.96 1019.80 1020.15 1020.00 1019.69 1019.84 1019.73 1019.62 1019.88 1019.92 1020.26 1020.65 1021.23 1021.46 1022.08 1022.48 1023.03 1023.23 1023.54 1023.65 1024.04 1024.44 1025.04 1025.58 1025.92 1025.60 1025.01 1024.67 1023.85 1022.97 1022.87 1023.06 1022.84 1022.63 1021.85 1021.00
1017.47 1017.40 1017.04 1016.56 1016.02 1015.66 1016.90 1018.25 1018.53 1018.80 1020.98 1020.79 1020.39 1020.24 1019.91 1019.88 1019.90 1020.61 1020.58 1020.99 1021.63 1022.15 1022.39 1022.62 1022.98 1023.38 1023.80 1024.03 1024.52 1025.17 1025.78 1026.34 1026.79 1026.27 1025.79 1024.92 1023.43 1021.88 1021.75 1021.89 1021.73 1021.44 1021.14 1020.23
1017.53 1017.45 1017.19 1016.70 1016.17 1015.73 1016.52 1017.77 1018.29 1019.47 1021.60 1021.39 1020.80 1020.37 1020.07 1020.38 1020.42 1020.85 1021.48 1021.60 1021.95 1022.66 1022.70 1023.17 1023.67 1024.15 1024.49 1024.72 1025.28 1025.59 1026.48 1027.10 1027.47 1026.98 1026.22 1024.97 1021.78 1021.51 1021.30 1021.47 1020.77 1020.74 1020.59 1020.51
1017.52 1017.48 1017.23 1016.85 1016.44 1016.16 1016.56 1017.77 1018.30 1019.46 1021.34 1021.70 1021.10 1020.69 1020.71 1020.98 1021.25 1021.69 1022.09 1022.52 1022.88 1022.91 1023.40 1024.57 1025.40 1025.60 1025.55 1025.82 1026.28 1026.43 1026.63 1027.26 1027.62 1027.38 1026.45 1024.55 1021.86 1020.71 1020.88 1021.10 1020.65 1020.34 1020.53 1020.70
1017.64 1017.50 1017.30 1017.07 1016.77 1016.56 1016.88 1018.09 1018.24 1018.87 1020.57 1021.53 1020.76 1020.93 1021.07 1021.57 1022.16 1022.71 1023.07 1023.34 1023.48 1023.77 1025.05 1026.06 1026.67 1026.70 1026.58 1026.41 1026.73 1027.09 1027.24 1027.31 1027.42 1027.48 1026.43 1024.40 1021.74 1020.94 1020.87 1021.09 1020.77 1020.74 1020.96 1021.25
1017.66 1017.62 1017.53 1017.37 1017.20 1016.94 1017.01 1018.27 1018.26 1018.59 1020.52 1021.00 1020.71 1020.72 1021.07 1021.41 1022.15 1023.05 1023.56 1023.85 1024.35 1024.70 1026.14 1027.28 1027.71 1027.35 1027.03 1026.78 1026.76 1027.01 1027.42 1027.44 1027.27 1026.68 1025.74 1023.57 1021.59 1021.20 1021.29 1021.58 1021.36 1021.16 1021.33 1021.48
1017.69 1017.81 1017.77 1017.59 1017.47 1017.27 1017.18 1018.57 1018.45 1018.61 1020.35 1020.90 1020.62 1020.40 1020.69 1021.28 1021.68 1022.56 1023.71 1024.49 1025.03 1026.00 1026.74 1027.46 1027.69 1027.63 1026.86 1026.73 1026.20 1026.07 1026.28 1026.34 1026.50 1026.30 1025.11 1022.87 1021.41 1021.59 1021.68 1021.24 1021.29 1021.50 1021.54 1021.51
1017.70 1017.81 1017.85 1017.84 1017.72 1017.52 1017.29 1018.50 1018.71 1018.76 1019.65 1020.92 1020.77 1020.50 1020.37 1020.34 1020.60 1021.48 1022.99 1023.48 1023.98 1024.72 1026.02 1027.17 1027.55 1027.38 1027.11 1026.56 1026.18 1025.58 1025.25 1024.42 1024.49 1024.86 1022.96 1021.58 1021.57 1021.36 1021.12 1021.35 1021.72 1022.00 1022.27 1022.74
1017.63 1017.81 1017.94 1018.07 1018.01 1017.84 1017.72 1018.72 1019.05 1019.38 1020.83 1021.34 1021.06 1020.85 1020.63 1020.35 1020.43 1020.61 1021.75 1023.43 1023.41 1024.18 1024.60 1025.90 1026.59 1026.68 1026.15 1026.12 1025.56 1024.84 1023.95 1023.56 1023.63 1023.37 1021.54 1021.23 1021.10 1020.92 1021.66 1022.09 1022.58 1022.78 1023.20 1023.25
1017.45 1017.85 1018.03 1018.09 1018.22 1018.23 1018.10 1018.83 1019.40 1019.75 1021.30 1021.99 1021.72 1021.08 1020.78 1020.45 1020.42 1020.60 1020.95 1021.85 1023.11 1024.03 1024.88 1025.69 1025.99 1025.92 1024.90 1024.79 1024.04 1024.07 1023.35 1023.21 1022.71 1021.98 1021.32 1021.05 1021.32 1021.95 1022.46 1023.14 1023.11 1023.44 1023.49 1023.24
1017.23 1017.70 1018.02 1018.19 1018.40 1018.51 1018.62 1019.06 1019.32 1019.39 1020.13 1021.76 1022.10 1021.35 1021.11 1020.96 1020.75 1020.91 1021.25 1021.93 1022.92 1024.08 1025.06 1025.45 1025.37 1024.84 1024.75 1024.28 1024.01 1023.29 1022.60 1022.27 1022.04 1020.95 1020.97 1021.55 1022.11 1022.75 1023.27 1023.49 1023.67 1023.53 1023.39 1023.09
1017.13 1017.61 1018.02 1018.26 1018.40 1018.58 1019.04 1019.63 1019.74 1019.53 1019.72 1021.24 1022.41 1022.04 1021.73 1021.56 1021.31 1021.45 1021.82 1022.16 1022.80 1023.45 1024.09 1024.47 1024.17 1023.62 1023.79 1023.90 1023.22 1022.03 1021.55 1021.43 1021.05 1020.97 1021.30 1022.23 1022.73 1023.65 1024.10 1024.15 1023.96 1023.60 1023.31 1023.04
1016.92 1017.45 1017.84 1018.24 1018.45 1018.70 1019.55 1020.03 1020.08 1019.66 1019.77 1021.22 1022.60 1022.58 1022.38 1022.20 1022.12 1022.43 1022.60 1022.64 1022.77 1023.15 1023.65 1023.73 1023.74 1023.53 1023.63 1023.17 1022.75 1022.34 1022.16 1021.88 1021.89 1021.83 1022.07 1023.11 1023.46 1024.16 1024.36 1024.11 1023.69 1023.28 1023.13 1022.90
1016.65 1017.26 1017.75 1018.33 1018.78 1019.39 1019.85 1019.96 1019.91 1020.00 1020.68 1021.68 1022.84 1022.89 1022.84 1022.53 1022.93 1023.23 1023.30 1023.33 1023.30 1023.29 1023.37 1023.59 1023.41 1023.45 1023.37 1023.05 1022.83 1022.99 1022.80 1022.91 1022.97 1023.01 1022.91 1023.53 1024.08 1024.15 1023.87 1023.55 1023.39 1023.13 1022.91 1022.66
1016.42 1017.18 1018.00 1018.65 1019.16 1019.57 1019.86 1020.05 1020.06 1020.60 1021.08 1022.08 1022.48 1022.75 1022.90 1022.74 1023.19 1023.39 1023.62 1023.52 1023.68 1023.90 1023.69 1023.49 1023.44 1023.14 1023.25 1023.34 1023.43 1023.53 1023.30 1023.26 1023.93 1023.88 1023.85 1023.91 1023.87 1023.74 1023.79 1023.60 1023.42 1023.22 1022.83 1022.62
1016.20 1017.08 1018.17 1019.46 1019.83 1019.47 1020.27 1020.30 1020.43 1021.10 1021.88 1022.35 1022.31 1022.45 1022.76 1022.98 1023.28 1023.67 1023.96 1023.94 1024.14 1024.15 1024.07 1023.77 1023.45 1023.08 1023.46 1023.65 1023.88 1023.78 1023.77 1023.88 1023.98 1023.89 1023.97 1023.98 1023.99 1023.88 1023.76 1023.61 1023.48 1023.43 1023.12 1022.57
1016.11 1017.79 1018.88 1019.66 1019.85 1020.28 1020.41 1020.92 1021.23 1022.03 1022.68 1022.93 1022.79 1022.92 1022.82 1023.21 1023.28 1023.68 1024.12 1024.18 1024.41 1024.48 1024.56 1024.30 1023.64 1023.30 1023.65 1023.99 1024.07 1024.13 1024.11 1024.17 1024.15 1024.20 1024.22 1024.39 1024.38 1024.10 1023.78 1023.47 1023.47 1023.37 1023.05 1022.65
1016.82 1017.48 1018.96 1019.69 1020.20 1020.62 1021.21 1021.47 1022.05 1022.12 1022.48 1022.89 1023.06 1023.11 1023.37 1023.74 1023.51 1023.86 1024.61 1024.58 1024.90 1024.99 1025.07 1024.78 1024.03 1023.66 1023.80 1023.94 1024.00 1024.12 1024.18 1024.36 1024.39 1024.35 1024.42 1024.24 1024.03 1023.87 1023.78 1023.61 1023.32 1023.09 1022.74 1022.31
1017.63 1018.26 1019.58 1020.18 1021.03 1021.17 1021.52 1021.70 1022.22 1022.45 1022.62 1022.88 1023.23 1023.79 1024.01 1024.18 1024.25 1024.48 1024.69 1025.10 1025.43 1025.60 1025.50 1024.76 1024.10 1024.03 1024.06 1024.09 1024.26 1024.21 1024.36 1024.46 1024.47 1024.56 1024.43 1024.15 1023.96 1023.74 1023.72 1023.58 1023.04 1022.81 1022.37 1021.79
1018.80 1019.58 1020.64 1021.13 1021.48 1021.67 1021.58 1021.83 1021.94 1022.35 1022.62 1022.92 1023.38 1024.10 1024.46 1024.77 1024.83 1025.11 1025.27 1025.83 1025.94 1025.90 1025.69 1024.74 1024.23 1024.03 1023.96 1024.12 1024.44 1024.57 1024.46 1024.47 1024.59 1024.41 1024.13 1023.93 1023.95 1023.68 1023.45 1023.25 1022.76 1022.50 1021.85 1021.20
1020.04 1020.60 1021.77 1022.20 1022.27 1022.15 1022.31 1022.44 1022.40 1022.63 1022.81 1023.29 1024.08 1024.74 1024.95 1025.45 1025.58 1025.47 1025.77 1026.13 1026.08 1025.75 1025.11 1024.60 1024.36 1024.24 1024.34 1024.46 1024.45 1024.34 1024.38 1024.42 1024.31 1024.10 1023.95 1023.67 1023.53 1023.33 1022.83 1022.30 1022.01 1021.77 1021.35 1020.95
1020.77 1021.94 1022.69 1022.92 1022.92 1023.11 1023.02 1022.98 1023.04 1023.12 1023.36 1023.78 1024.27 1025.27 1025.79 1026.10 1026.17 1026.21 1026.11 1026.34 1025.59 1024.89 1024.73 1024.49 1024.56 1024.54 1024.49 1024.36 1024.25 1024.11 1024.09 1024.10 1023.94 1023.75 1023.53 1023.26 1022.96 1022.72 1022.36 1021.78 1021.56 1021.06 1020.73 1020.20
1021.62 1022.87 1022.77 1023.02 1023.36 1023.36 1023.57 1023.22 1023.28 1023.28 1023.63 1024.44 1024.98 1025.77 1026.00 1026.60 1026.63 1026.54 1026.13 1025.74 1024.95 1024.54 1024.45 1024.41 1024.35 1024.30 1024.18 1024.07 1023.93 1023.75 1023.65 1023.66 1023.47 1023.20 1022.98 1022.73 1022.30 1022.27 1022.12 1021.47 1020.50 1020.26 1019.91 1019.44
Wind_Speed
10 11 14 16 15 14 5 4 4 2 2 6 1 3 5 2 1 4 4 4 3 3 3 4 3 3 2 4 0 2 1 3 2 1 1 0 2 3 3 2 2 1 1 8
11 12 15 15 15 9 3 3 1 2 3 4 1 1 3 3 2 4 3 3 3 3 3 5 2 3 1 4 3 1 2 2 3 2 3 2 3 1 3 5 3 6 3 7
11 13 14 16 15 8 4 4 3 5 5 1 7 5 2 4 3 4 5 4 4 4 4 5 3 2 2 3 2 6 4 2 4 4 4 2 5 4 4 4 4 4 13 17
10 11 13 15 13 8 3 4 1 1 1 2 4 4 3 4 3 3 4 4 3 5 4 2 3 1 2 2 1 3 3 3 3 5 10 4 8 12 11 13 13 8 16 16
8 10 13 14 13 6 5 5 5 3 2 2 4 4 2 4 3 2 2 7 2 3 5 3 4 3 2 3 2 2 2 1 1 4 5 4 9 14 14 13 14 14 18 22
5 9 12 12 12 3 3 1 2 5 4 2 4 2 4 5 6 5 2 9 5 5 4 4 2 2 4 2 3 3 1 4 2 5 5 8 8 5 4 4 6 5 7 10
3 7 10 11 12 5 4 2 4 6 1 2 3 3 3 5 2 7 3 3 5 3 4 4 4 6 6 3 3 1 5 4 2 3 4 2 3 2 6 6 15 9 11 10
2 6 8 10 12 7 4 2 3 4 3 1 2 5 6 5 5 5 4 3 2 3 5 4 5 5 5 2 6 3 2 5 2 2 3 8 10 4 1 5 9 3 3 1
2 4 7 10 11 7 5 2 1 5 8 5 3 4 3 4 3 3 3 3 3 6 4 4 3 3 3 3 1 5 4 4 2 3 4 6 5 2 1 3 9 2 1 9
2 3 7 8 11 10 4 2 2 4 5 3 3 3 5 5 4 4 1 3 3 3 3 2 3 4 1 3 3 3 1 1 5 7 7 9 8 4 1 1 5 4 4 8
5 2 5 7 8 9 4 1 3 4 4 2 3 3 5 3 2 5 4 4 2 3 4 3 3 3 4 1 2 4 4 4 5 2 4 9 4 1 4 3 5 11 10 9
6 5 3 6 8 8 4 3 2 2 5 3 0 1 1 1 6 6 0 3 4 5 5 2 3 3 1 3 3 0 5 7 4 10 8 3 2 5 6 6 8 5 3 10
7 6 4 4 6 10 5 3 1 4 4 3 2 1 2 1 2 3 5 2 4 3 1 4 2 4 5 4 7 3 4 4 4 2 7 7 10 12 5 8 10 11 9 6
9 7 6 5 5 7 6 3 1 5 4 5 4 3 2 1 2 2 3 6 5 6 2 3 3 2 4 4 3 6 6 3 5 8 14 14 6 5 7 9 9 7 1 1
10 9 8 7 6 7 5 2 1 2 5 5 3 4 2 4 1 5 6 6 6 3 2 2 3 2 2 1 1 4 5 7 5 6 11 11 3 6 6 7 3 2 4 9
11 10 10 9 9 6 3 4 2 1 2 5 2 3 4 5 5 2 3 3 3 3 4 3 3 2 3 2 4 5 11 8 10 10 5 6 9 7 2 2 4 6 8 8
13 12 12 11 10 2 3 4 1 2 2 5 2 4 3 2 4 3 2 2 1 3 3 3 3 3 4 2 3 1 7 8 9 6 8 7 4 3 2 4 7 8 8 8
15 14 13 10 12 9 2 2 3 1 5 3 2 4 3 0 1 2 1 1 1 1 1 1 2 2 1 4 3 7 5 10 12 13 14 11 5 3 4 7 9 12 12 10
16 16 16 4 3 2 2 7 9 2 4 4 3 5 4 2 1 1 2 0 1 1 1 1 2 2 5 1 3 4 6 5 8 6 6 3 2 6 8 10 11 12 13 12
23 4 3 2 2 10 7 4 3 3 3 3 2 1 2 1 1 1 2 2 1 2 1 2 2 1 4 5 7 7 6 6 4 2 4 5 7 8 9 10 10 10 13 14
4 3 3 1 2 1 3 3 3 2 1 0 1 1 2 3 2 2 1 1 1 2 1 2 2 2 5 5 4 3 3 2 2 1 3 5 7 9 10 11 10 10 11 12
5 7 5 3 3 3 4 2 2 2 3 1 2 2 2 1 1 2 0 2 1 3 2 1 3 0 7 6 4 3 2 1 4 4 6 7 7 7 7 9 10 11 12 12
3 5 4 2 1 3 4 5 1 3 3 3 2 2 1 1 3 2 2 2 2 0 1 3 1 4 6 5 2 1 2 4 5 7 7 8 9 9 5 10 10 10 12 12
4 3 4 1 2 1 2 2 3 2 3 4 3 3 2 1 2 1 3 1 1 2 2 5 2 5 5 3 2 2 4 6 6 8 8 7 7 10 10 8 9 9 12 14
4 3 3 1 1 3 2 1 2 2 3 3 3 3 2 2 3 1 3 2 3 5 4 2 3 3 1 3 3 5 6 6 6 7 6 8 9 8 11 10 8 9 11 11
4 4 4 1 3 2 1 1 2 1 3 2 3 3 3 1 2 2 4 4 7 3 3 3 2 2 3 4 6 7 7 7 8 8 8 8 8 8 11 12 10 9 9 11
4 2 2 3 2 3 3 1 2 2 2 2 3 3 3 3 2 3 5 6 3 3 3 2 3 4 5 6 7 7 7 8 8 9 8 9 8 5 6 10 12 10 10 11
Wind_Direction
344 349 356 352 346 336 58 101 76 311 61 56 20 121 152 159 76 37 71 88 90 100 82 73 93 122 81 330 262 46 2 130 296 107 115 49 115 116 94 113 191 183 240 270
347 355 353 348 343 347 120 94 148 331 94 121 8 219 66 83 90 31 81 85 58 51 96 101 85 93 24 7 62 124 181 31 349 45 70 18 61 90 107 96 86 224 209 263
351 352 351 345 346 347 83 92 66 344 48 55 124 123 104 106 43 68 68 104 79 86 56 24 124 109 61 16 78 56 88 125 167 221 248 197 262 217 191 173 228 238 240 272
352 351 351 343 344 345 82 37 194 187 226 2 104 100 119 114 106 80 42 53 77 129 106 69 94 105 0 52 11 59 91 221 202 266 273 275 268 259 233 228 236 240 274 278
349 353 353 340 343 355 78 126 133 38 57 1 89 13 124 123 121 82 43 115 127 93 125 141 184 151 209 229 36 75 17 232 111 278 301 290 281 265 251 236 248 253 260 267
358 0 356 341 346 30 99 172 64 101 323 30 81 212 156 160 123 33 88 138 103 77 158 150 101 102 85 110 156 154 136 135 104 268 337 317 286 237 178 196 195 217 262 287
20 6 358 353 358 40 116 148 104 85 258 92 149 146 94 129 92 133 110 90 102 187 104 94 54 53 51 67 39 88 131 104 163 283 338 233 250 264 235 252 276 256 266 279
61 12 3 7 9 23 90 115 109 113 104 231 36 99 109 92 50 68 102 38 43 110 55 58 23 347 19 27 41 57 124 122 175 246 225 310 297 287 177 180 280 248 234 252
139 19 19 13 17 28 85 72 90 98 119 241 143 119 136 135 110 34 67 51 28 62 76 67 135 233 235 288 153 47 62 63 140 156 248 266 248 281 83 153 293 100 106 319
171 39 29 25 27 19 94 69 41 89 103 263 136 153 164 122 94 109 316 156 60 32 81 110 174 237 259 244 180 224 46 244 239 245 260 270 258 272 12 43 312 178 249 289
162 99 39 29 25 21 83 99 10 103 99 274 187 140 125 98 102 139 180 79 358 77 94 154 201 197 220 193 231 187 207 171 212 178 237 278 188 83 211 288 322 306 280 289
172 157 88 46 19 17 83 80 359 12 84 159 301 325 57 135 176 133 101 160 160 164 97 185 125 199 181 177 238 116 265 194 195 191 225 244 234 246 267 307 294 326 349 65
174 168 141 85 52 33 75 115 20 61 76 9 62 133 342 38 183 166 122 282 152 161 105 145 147 212 132 180 225 229 267 183 221 260 244 265 286 290 25 64 87 77 71 79
175 172 155 129 78 50 71 81 86 79 97 107 277 332 276 337 175 130 105 128 84 91 97 127 153 183 183 203 232 217 220 125 235 258 281 286 276 61 110 91 81 79 126 314
172 165 156 147 121 87 79 90 133 129 124 174 260 283 346 3 335 154 121 123 121 137 107 129 214 207 149 204 74 227 170 210 210 257 274 300 6 106 94 104 144 209 277 286
169 163 161 153 145 134 79 17 2 354 97 93 17 295 9 353 8 124 136 149 127 148 156 203 219 244 160 204 230 245 219 239 263 282 43 83 107 101 99 228 287 299 297 312
165 164 163 161 162 97 140 179 236 226 100 85 339 308 304 351 37 38 36 35 149 150 185 194 190 202 165 210 252 210 354 27 38 25 125 98 77 122 226 297 303 294 307 305
163 162 165 155 110 110 139 47 12 69 86 79 149 258 8 227 89 93 354 103 15 2 232 36 175 40 157 237 56 355 16 87 65 63 68 91 105 43 300 296 317 312 307 300
151 134 121 103 52 136 154 118 83 37 100 181 146 157 219 95 78 82 69 125 74 0 254 250 125 191 211 18 42 50 35 111 123 85 78 78 340 303 309 310 317 312 311 305
124 95 108 97 271 107 136 28 66 21 9 26 142 80 149 217 98 13 96 33 162 220 217 302 226 228 94 112 120 116 123 137 180 68 2 341 320 316 310 305 307 302 297 300
66 93 87 148 71 124 29 60 109 104 170 179 48 43 113 327 117 129 19 170 146 236 261 266 234 219 155 167 159 172 124 85 44 275 289 309 302 304 312 315 309 298 295 292
97 101 92 69 44 63 125 124 124 165 152 136 129 100 75 18 36 105 92 163 131 249 0 269 259 36 142 171 192 197 181 294 295 294 296 301 304 303 300 302 304 304 302 297
45 59 87 130 49 127 177 151 160 150 164 157 143 102 96 66 40 78 127 194 213 355 204 236 239 160 173 193 196 233 308 294 306 305 301 305 307 311 293 298 295 289 292 292
66 84 98 57 128 129 159 146 147 152 134 130 118 98 106 57 95 113 132 98 199 225 252 233 188 174 185 182 200 228 289 296 293 296 292 289 288 290 290 268 270 280 292 298
98 81 95 128 116 70 85 14 82 50 101 103 97 77 77 40 98 52 107 132 244 217 234 209 197 186 305 262 251 278 281 280 286 286 287 283 281 282 291 296 287 288 284 284
81 78 103 91 64 72 97 127 108 128 122 101 59 103 88 120 107 136 190 169 222 238 204 202 192 213 236 258 265 274 281 285 287 283 275 276 275 280 292 302 295 280 273 288
68 62 79 102 98 149 185 178 132 139 93 116 115 112 182 93 81 228 190 209 218 195 208 204 213 223 256 265 276 276 275 282 281 284 285 280 285 289 289 294 308 302 304 297